[[{"header":{"parameterUnit":"m.s-1","parameterCategory":1,"la1":30.2991,"la2":30.254,"lo1":-89.0895,"lo2":-89.0444,"dx":0.0017,"dy":0.0017,"nx":28,"ny":28,"refTime":"2022-12-29T09:00:00:Z","depth":0,"parameterNumber":2,"parameterNumberName":"U-component_of_WINDS"},"data":[0,0,0,0,0,0,0,0,0,0,0,0,0,0,0,0,0,0,0,0,0,0,0,0,0,0,0,0,0,0,0,0,0,0,0,0,0,0,0,0,0,0,0,0,0,0,0,0,0,0,0,0,0,0,0,0,0,0,-4.1272,-4.1273,0,-4.1317,-4.1318,-4.1318,-4.124,-4.1237,-4.1235,-4.1232,-4.1279,-4.1282,-4.1286,0,0,0,0,0,0,0,0,0,0,0,0,0,-4.112,-4.1123,-4.1272,-4.1273,-4.1274,-4.1317,-4.1318,-4.1318,-4.1241,-4.1237,-4.1234,-4.1231,-4.1278,-4.1282,-4.1286,0,0,0,0,0,0,0,0,0,0,0,0,0,-4.1178,-4.1124,-4.1272,-4.124,-4.1237,-4.1317,-4.1318,-4.1319,-4.1241,-4.1237,-4.1233,-4.123,-4.1276,-4.1282,-4.1287,-4.1401,0,0,-4.1304,-4.1306,0,0,0,0,0,0,0,0,-4.1174,-4.1183,-4.1244,-4.1242,-4.124,-4.1269,-4.1281,-4.1346,-4.1242,-4.124,-4.1232,-4.1228,-4.1279,-4.1284,-4.1301,-4.1403,-4.1405,-4.1305,-4.1308,-4.131,-4.1312,0,0,0,0,0,0,0,-4.117,-4.1181,-4.129,-4.1245,-4.1242,-4.1223,-4.1227,-4.1293,-4.1281,-4.124,-4.1234,-4.124,-4.1277,-4.1296,-4.1302,-4.1405,-4.1304,-4.1309,-4.1313,-4.1315,-4.1601,-4.1605,0,0,0,0,0,0,-4.117,-4.1178,-4.1289,-4.1291,-4.1197,-4.1229,-4.1234,-4.1264,-4.128,-4.1279,-4.1244,-4.1237,-4.1288,-4.1295,-4.1303,-4.1435,-4.131,-4.1315,-4.1319,-4.1597,-4.1602,-4.1607,0,0,0,0,0,0,-4.1167,-4.1181,-4.1287,-4.1233,-4.1245,-4.1236,-4.1271,-4.1267,-4.1285,-4.1283,-4.1281,-4.1265,-4.1285,-4.1295,-4.1376,-4.1436,-4.1318,-4.1323,-4.1592,-4.1599,-4.1605,-4.1702,0,0,0,0,0,0,-4.1163,-4.118,-4.1223,-4.1235,-4.1248,-4.136,-4.1274,-4.127,-4.1295,-4.1286,-4.1303,-4.1302,-4.1283,-4.1369,-4.1382,-4.1441,-4.1327,-4.1587,-4.1595,-4.1603,-4.1694,-4.1711,-4.1726,0,0,0,0,0,-4.1158,-4.1249,-4.1226,-4.124,-4.1302,-4.1363,-4.1371,-4.1348,-4.13,-4.1343,-4.1342,-4.1301,-4.1428,-4.1378,-4.1392,-4.1454,-4.1583,-4.1593,-4.1602,-4.1686,-4.1708,-4.1726,0,0,0,0,0,0,-4.1245,-4.125,-4.1224,-4.1322,-4.1343,-4.135,-4.1403,-4.1371,-4.1406,-4.1397,-4.1367,-4.1371,-4.1458,-4.1465,-4.1409,-4.1564,-4.1497,-4.151,-4.1556,-4.1577,-4.1593,-4.1588,-4.1332,0,0,0,0,0,-4.1276,-4.1325,-4.1327,-4.1413,-4.1425,-4.1413,-4.1439,-4.1419,-4.1439,-4.1448,-4.1452,-4.1474,-4.1518,-4.1548,-4.1589,-4.1695,-4.1697,-4.1745,-4.1761,-4.1775,-4.1785,-4.184,-4.1861,-4.1639,-4.1638,-4.1638,0,0,-4.1339,-4.1348,-4.1381,-4.1431,-4.1444,-4.1496,-4.1421,-4.1479,-4.1516,-4.1457,-4.1533,-4.1538,-4.156,-4.1654,-4.1695,-4.1662,-4.1848,-4.1787,-4.1798,-4.1801,-4.1852,-4.1873,-4.1892,-4.1645,-4.1644,-4.1643,0,0,-4.148,-4.1493,-4.1565,-4.1581,-4.1603,-4.1594,-4.1612,-4.1624,-4.1624,-4.1701,-4.1657,-4.1702,-4.178,-4.1797,-4.1816,-4.1965,-4.1928,-4.1979,-4.2064,-4.2118,-4.2135,-4.215,-4.2202,-4.2221,-4.1991,-4.1991,-4.1991,0,-4.1556,-4.1632,-4.1606,-4.1667,-4.169,-4.1639,-4.1711,-4.1728,-4.1762,-4.1779,-4.1741,-4.1837,-4.1849,-4.1945,-4.1981,-4.1999,-4.2018,-4.1976,-4.2135,-4.215,-4.2164,-4.2212,-4.2232,-4.1997,-4.1996,-4.1996,-4.1995,0,-4.1724,-4.1777,-4.1833,-4.1867,-4.1896,-4.1963,-4.1947,-4.198,-4.1959,-4.1954,-4.2032,-4.2045,-4.2086,-4.2108,-4.2088,-4.2202,-4.218,-4.214,-4.2071,-4.2191,-4.2236,-4.2255,-4.2005,-4.2003,-4.2001,-4.2,0,0,-4.1919,-4.1938,-4.1959,-4.1973,-4.1994,-4.2035,-4.21,-4.2141,-4.2169,-4.2195,-4.2247,-4.2315,-4.2277,-4.2298,-4.228,-4.2328,-4.2443,-4.2281,-4.2281,-4.2308,-4.2567,-4.2596,-4.2618,-4.242,-4.2423,-4.2426,-4.2565,0,-4.2058,-4.2168,-4.2147,-4.2255,-4.2303,-4.2256,-4.2312,-4.2331,-4.2329,-4.237,-4.2368,-4.2415,-4.2362,-4.2375,-4.242,-4.2419,-4.2494,-4.2409,-4.2467,-4.247,-4.246,-4.2642,-4.2673,-4.2803,-4.2582,-4.2585,-4.2588,0,-4.2234,-4.2266,-4.2378,-4.2391,-4.241,-4.2461,-4.2496,-4.2537,-4.2557,-4.2552,-4.2577,-4.2549,-4.2613,-4.2546,-4.2634,-4.2576,-4.2599,-4.2603,-4.2607,-4.2609,-4.2534,-4.2647,-4.2844,-4.2862,-4.2615,-4.2613,-4.2611,0,-4.2362,-4.2434,-4.251,-4.2524,-4.2541,-4.2578,-4.2587,-4.2604,-4.2629,-4.2661,-4.2677,-4.2716,-4.2737,-4.2768,-4.2752,-4.2705,-4.2841,-4.2773,-4.2838,-4.2838,-4.2867,-4.2865,-4.3067,-4.2886,-4.2886,-4.2885,-4.2885,0,-4.2518,-4.2588,-4.2568,-4.2614,-4.2691,-4.2667,-4.2744,-4.2748,-4.2763,-4.2809,-4.2772,-4.2816,-4.2793,-4.2836,-4.2824,-4.2897,-4.2907,-4.2904,-4.29,-4.2906,-4.2906,-4.2919,-4.2908,-4.2891,-4.2889,-4.2888,-4.2888,0,-4.2673,-4.2663,-4.2742,-4.2752,-4.2756,-4.2813,-4.2821,-4.2864,-4.286,-4.2919,-4.2932,-4.2925,-4.2973,-4.2961,-4.3013,-4.3005,-4.3097,-4.3082,-4.3089,-4.3085,-4.315,-4.3143,-4.3365,-4.3392,-4.3196,-4.3198,-4.32,0,-4.2772,-4.2825,-4.284,-4.2868,-4.288,-4.2926,-4.2952,-4.2931,-4.296,-4.2987,-4.3027,-4.3072,-4.3107,-4.3186,-4.3186,-4.3226,-4.321,-4.3286,-4.3216,-4.3221,-4.3209,-4.3205,-4.3209,-4.3299,-4.3301,-4.3303,-4.3304,0,-4.2947,-4.294,-4.2978,-4.3016,-4.3048,-4.3076,-4.3101,-4.3126,-4.3107,-4.3141,-4.319,-4.3217,-4.3271,-4.3315,-4.3352,-4.3361,-4.333,-4.3327,-4.3343,-4.3349,-4.335,-4.3348,-4.3124,-4.3321,-4.3319,-4.3318,-4.3317,-4.3317,-4.3076,-4.312,-4.3137,-4.3181,-4.3198,-4.3222,-4.3263,-4.3264,-4.3304,-4.3346,-4.3332,-4.3387,-4.3406,-4.3453,-4.3467,-4.351,-4.3481,-4.3506,-4.3511,-4.3517,-4.3524,-4.3346,-4.3517,-4.3516,-4.3516,-4.3515,-4.3515,0,-4.3247,-4.3256,-4.3297,-4.3333,-4.3368,-4.3336,-4.3362,-4.3393,-4.3442,-4.3463,-4.3498,-4.3554,-4.3597,-4.3601,-4.3641,-4.3675,-4.3661,-4.3686,-4.3682,-4.3684,-4.3549,-4.3529,-4.3696,-4.3696,-4.3696,-4.3696,-4.3696,-4.3696,-4.334,-4.3412,-4.3406,-4.3487,-4.3495,-4.3549,-4.3566,-4.3588,-4.3605,-4.3668,-4.3704,-4.3706,-4.372,-4.3762,-4.38,-4.38,-4.3816,-4.3846,-4.384,-4.3712,-4.3694,-4.3677,-4.3658,-4.385,-4.385,-4.3971,-4.3973,-4.3973]},{"header":{"parameterUnit":"m.s-1","parameterCategory":1,"la1":30.2991,"la2":30.254,"lo1":-89.0895,"lo2":-89.0444,"dx":0.0017,"dy":0.0017,"nx":28,"ny":28,"refTime":"2022-12-29T09:00:00:Z","depth":0,"parameterNumber":3,"parameterNumberName":"V-component_of_WINDS"},"data":[0,0,0,0,0,0,0,0,0,0,0,0,0,0,0,0,0,0,0,0,0,0,0,0,0,0,0,0,0,0,0,0,0,0,0,0,0,0,0,0,0,0,0,0,0,0,0,0,0,0,0,0,0,0,0,0,0,0,0.6043,0.6043,0,0.6031,0.6031,0.6031,0.599,0.5989,0.5988,0.5987,0.5977,0.5977,0.5978,0,0,0,0,0,0,0,0,0,0,0,0,0,0.6034,0.6034,0.6043,0.6043,0.6043,0.6031,0.6031,0.6031,0.599,0.5989,0.5988,0.5987,0.5977,0.5977,0.5978,0,0,0,0,0,0,0,0,0,0,0,0,0,0.6032,0.6034,0.6043,0.6021,0.6019,0.6031,0.6031,0.6031,0.599,0.5989,0.5987,0.5986,0.5976,0.5977,0.5978,0.6012,0,0,0.5981,0.5981,0,0,0,0,0,0,0,0,0.6032,0.6032,0.6024,0.6022,0.602,0.6011,0.6024,0.6025,0.5991,0.6001,0.5987,0.5985,0.5989,0.5989,0.599,0.6011,0.6011,0.5981,0.5982,0.5982,0.5982,0,0,0,0,0,0,0,0.6032,0.6032,0.6038,0.6024,0.6022,0.6013,0.6011,0.6024,0.6003,0.6,0.5997,0.5996,0.5988,0.5989,0.5989,0.6011,0.5981,0.5982,0.5982,0.5983,0.6063,0.6064,0,0,0,0,0,0,0.6035,0.6033,0.6039,0.6038,0.6022,0.6014,0.6012,0.6015,0.6003,0.6,0.5997,0.5994,0.5988,0.5988,0.5989,0.603,0.5982,0.5983,0.5983,0.6061,0.6063,0.6065,0,0,0,0,0,0,0.6035,0.6036,0.6039,0.6035,0.6034,0.6016,0.602,0.6016,0.6017,0.6001,0.5997,0.6002,0.5987,0.5988,0.6007,0.6029,0.5983,0.5984,0.6059,0.6062,0.6064,0.6111,0,0,0,0,0,0,0.6035,0.6036,0.6047,0.6035,0.6035,0.6057,0.6021,0.6016,0.6018,0.6014,0.6005,0.6002,0.5986,0.6006,0.6008,0.6029,0.5985,0.6057,0.606,0.6063,0.6107,0.6114,0.6121,0,0,0,0,0,0.6034,0.6061,0.6048,0.6049,0.6049,0.6058,0.6058,0.6039,0.602,0.6033,0.6023,0.6002,0.6026,0.6008,0.601,0.6032,0.6056,0.606,0.6063,0.6104,0.6113,0.612,0,0,0,0,0,0,0.6076,0.6059,0.6045,0.6067,0.6065,0.6051,0.6066,0.6048,0.6051,0.6047,0.6024,0.6023,0.6046,0.6041,0.6021,0.6066,0.6038,0.6042,0.6068,0.6077,0.6083,0.6085,0.5986,0,0,0,0,0,0.6088,0.6096,0.6081,0.6103,0.6102,0.6084,0.6088,0.6074,0.607,0.6068,0.606,0.6058,0.6065,0.607,0.6076,0.6106,0.6105,0.6122,0.6129,0.6135,0.6139,0.6157,0.6166,0.6077,0.6077,0.6076,0,0,0.6113,0.6104,0.6111,0.6111,0.6107,0.6118,0.6083,0.6095,0.6103,0.607,0.6089,0.6083,0.6079,0.6105,0.6116,0.6101,0.6163,0.6139,0.6144,0.6145,0.6162,0.617,0.6178,0.6079,0.6079,0.6078,0,0,0.6164,0.6157,0.6176,0.6173,0.6167,0.6156,0.6161,0.615,0.6145,0.6163,0.6139,0.6149,0.6161,0.6161,0.6162,0.6215,0.6197,0.6218,0.6253,0.6271,0.6278,0.6284,0.6306,0.6313,0.6222,0.6222,0.6222,0,0.6195,0.6209,0.6188,0.6202,0.6204,0.6174,0.6195,0.6193,0.619,0.6193,0.6176,0.6193,0.6188,0.6215,0.6228,0.6229,0.6236,0.6219,0.6279,0.6285,0.629,0.631,0.6318,0.6224,0.6224,0.6224,0.6224,0,0.6249,0.6259,0.6275,0.6274,0.6277,0.6294,0.6277,0.6284,0.627,0.6261,0.6281,0.6275,0.628,0.6285,0.6271,0.6311,0.6302,0.6283,0.6254,0.6302,0.632,0.6328,0.6228,0.6227,0.6227,0.6226,0,0,0.6325,0.6313,0.6319,0.6319,0.6312,0.6321,0.6338,0.6342,0.635,0.6349,0.6364,0.6376,0.6359,0.6361,0.6347,0.6363,0.6409,0.6342,0.6341,0.6356,0.6455,0.647,0.6479,0.6396,0.6398,0.6399,0.6456,0,0.6375,0.6402,0.6385,0.6416,0.6426,0.64,0.6415,0.6414,0.6406,0.6415,0.6407,0.6417,0.6392,0.6393,0.6408,0.64,0.6428,0.6395,0.6412,0.6413,0.6415,0.6489,0.6505,0.6559,0.6462,0.6464,0.6464,0,0.6436,0.6439,0.6471,0.6465,0.6469,0.6482,0.6487,0.6495,0.6494,0.6488,0.6491,0.6474,0.6492,0.6463,0.6489,0.6467,0.6473,0.647,0.6472,0.6474,0.6442,0.6495,0.6575,0.6584,0.6475,0.6474,0.6474,0,0.6491,0.6503,0.6525,0.6525,0.6517,0.6528,0.6526,0.6523,0.6528,0.6532,0.6536,0.6542,0.6546,0.6552,0.6538,0.6518,0.6567,0.6536,0.6564,0.6565,0.6576,0.6576,0.6661,0.6577,0.6577,0.6577,0.6577,0,0.655,0.6571,0.655,0.6563,0.6587,0.6567,0.6592,0.6587,0.6585,0.6598,0.6575,0.6588,0.6568,0.658,0.6569,0.6594,0.6595,0.6592,0.6589,0.6595,0.6596,0.6599,0.6596,0.6579,0.6579,0.6578,0.6578,0,0.6615,0.6601,0.6623,0.6615,0.6613,0.6632,0.6625,0.6638,0.663,0.6647,0.665,0.6637,0.665,0.6636,0.6648,0.6641,0.6674,0.6665,0.6675,0.6673,0.6702,0.67,0.6794,0.6806,0.6713,0.6714,0.6715,0,0.6654,0.667,0.6664,0.6671,0.667,0.6681,0.6687,0.6669,0.6676,0.6677,0.6691,0.6701,0.6709,0.6731,0.6724,0.6733,0.6725,0.6757,0.6727,0.6733,0.6728,0.6728,0.6731,0.6764,0.6765,0.6766,0.6767,0,0.6725,0.6718,0.6726,0.6734,0.6741,0.6745,0.6748,0.6755,0.6737,0.6747,0.6759,0.6766,0.6779,0.6791,0.6798,0.6797,0.678,0.6777,0.6784,0.6791,0.6797,0.6796,0.6694,0.6775,0.6774,0.6773,0.6773,0.6773,0.678,0.6794,0.6793,0.6803,0.6804,0.6808,0.682,0.6814,0.6824,0.6833,0.6822,0.6839,0.684,0.6848,0.6849,0.6863,0.685,0.686,0.6863,0.6866,0.6871,0.6793,0.6864,0.6864,0.6864,0.6864,0.6864,0,0.6852,0.685,0.686,0.6866,0.6875,0.6858,0.6861,0.687,0.6885,0.6887,0.6895,0.6912,0.6924,0.6918,0.6929,0.6941,0.6934,0.6945,0.6945,0.6945,0.6881,0.6875,0.6951,0.6951,0.6951,0.6951,0.6951,0.6951,0.6891,0.6914,0.6908,0.6932,0.693,0.6947,0.695,0.6955,0.6956,0.6976,0.6986,0.6982,0.6981,0.6992,0.7003,0.7001,0.7008,0.7022,0.7018,0.6958,0.695,0.6941,0.6935,0.7023,0.7023,0.7081,0.7081,0.7082]}]]